Regional Weather Roundup
Issued by NWS Charleston, SC

Current Version | Previous Version | Graphics & Text | Print | Product List | Glossary On
Versions: 1 2 3 4 5 6 7 8 9 10 11 12 13 14 15 16 17 18 19 20 21 22 23 24 25 26 27 28 29 30 31 32 33 34 35 36 37 38 39 40 41 42 43 44 45 46 47 48 49 50
000 ASUS42 KCHS 270212 RWRCHS REGIONAL WEATHER ROUNDUP NATIONAL WEATHER SERVICE CHARLESTON SC 1000 PM EDT THU MAR 26 2015 NOTE: "FAIR" INDICATES FEW OR NO CLOUDS BELOW 12,000 FEET WITH NO SIGNIFICANT WEATHER AND/OR OBSTRUCTIONS TO VISIBILITY. NOT ALL STATIONS ARE QUALITY CONTROLLED BY THE NATIONAL WEATHER SERVICE. USE DATA WITH CAUTION...ESPECIALLY DEWPOINT OBSERVATIONS. SCZ027-030-031-034>040-042>050-270300- ...SOUTHEAST SOUTH CAROLINA... CITY SKY/WX TMP DP RH WIND PRES REMARKS N CHARLESTON CLOUDY 66 56 70 S9 29.81F WATERFRONT PRK N/A 64 N/A N/A S10 N/A MOUNT PLEASANT FAIR 64 57 77 S7 29.82F PINOPOLIS N/A 72 55 56 S6 29.73F MONCKS CORNER FAIR 70 55 60 S6 29.80F SUMMERVILLE FAIR 68 59 73 CALM 29.81F BEAUFORT MCAS CLOUDY 67 58 72 S9 29.82S BEAUFORT ARPT LGT RAIN 66 61 82 CALM 29.82S HILTON HEAD IS LGT RAIN 64 63 94 S5 29.84S WALTERBORO CLOUDY 68 59 73 S9 29.81S ALLENDALE CLOUDY 68 59 73 CALM 29.79S ...SOUTHERN MIDLANDS AND PEE DEE... CITY SKY/WX TMP DP RH WIND PRES REMARKS GEORGETOWN NOT AVBL KINGSTREE NOT AVBL ORANGEBURG CLOUDY 70 58 65 S5 29.78F BARNWELL FAIR 70 57 64 SW6 29.80S AIKEN FAIR 68 54 60 S7 29.82R MANNING FAIR 66 55 68 S3 29.79S COLUMBIA CLOUDY 70 56 61 SW3 29.76F SUMTER CLOUDY 68 58 68 S7 29.75F FLORENCE CLOUDY 69 58 67 S12 29.77S MYRTLE BEACH CLEAR 63 57 82 S8 29.84F N MYRTLE BEACH PTCLDY 61 58 90 SW10 29.82F $$ GAZ063-065-086>088-099>101-113>116-118-119-134>141-150-270300- ...SOUTHEAST GEORGIA... CITY SKY/WX TMP DP RH WIND PRES REMARKS SAVANNAH ARPT LGT RAIN 66 62 87 S9 29.83S HUNTER AAF CLOUDY 66 64 92 S8 29.81F FORT STEWART CLOUDY 66 64 92 S5 29.81R STATESBORO LGT RAIN 65 65 100 CALM 29.82F SYLVANIA CLOUDY 64 64 97 CALM 29.83R CLAXTON LGT RAIN 64 64 100 CALM 29.83R ...CSRA...CENTRAL AND FAR SOUTHEAST GEORGIA... CITY SKY/WX TMP DP RH WIND PRES REMARKS THOMSON CLOUDY 67 61 80 CALM 29.85R AUGUSTA-BUSH CLOUDY 69 56 62 S10 29.78S AUGUSTA-DANIEL CLOUDY 70 56 61 SW6 29.80R SWAINSBORO FAIR 68 54 60 W3 29.84R VIDALIA CLOUDY 63 63 100 S6 29.83R EASTMAN FAIR 65 65 100 SW5 29.86R HAZLEHURST FAIR 64 64 100 S3 29.82S FOG ALMA CLOUDY 65 64 97 CALM 29.84R WAYCROSS CLOUDY 69 69 99 CALM 29.84R JESUP CLOUDY 68 68 100 CALM 29.84R FOG BAXLEY CLOUDY 66 64 94 CALM 29.84R FOG BRUNSWICK CLOUDY 66 63 88 SE7 29.85S SAINT SIMONS CLOUDY 65 63 93 S7 29.85S $$ SCZ027-028-034-036>038-045-046-048>050-GAZ119-141-270300- ...LAKE AND SUPPLEMENTAL COASTAL OBSERVATIONS... STATION/POSITION TIME TEMP WIND PRES WAVE SWELL AIR SEA DIR/SP/G HT/PER HT/PER/DIR (UTC) (F) (DEG/KT/KT) (MB) (FT/S) (FT/S/D) UPR LAKE MARION NOT AVBL WINYAH BAY 0045 66 220/ 6 1009.0 LAKE MURRAY 0100 66 210/ 7/ 7 1007.8S ACE BASIN NERRS NOT AVBL FORT PULASKI 0100 65 63 180/ 5/ 9 1010.7F SAPELO ISLAND 0100 65 170/ 8 1011.0S $$ ANZ835-935-AMZ111-154-330-350-352-354-370-450-454-472-270300- ...C-MAN AND BUOY OBSERVATIONS... STATION/POSITION TIME TEMP WIND PRES WAVE SWELL AIR SEA DIR/SP/G HT/PER HT/PER/DIR (UTC) (F) (DEG/KT/KT) (MB) (FT/S) (FT/S/D) BUOY 41004 0150 70 70 200/ 12/ 14 1010.1F 5/ 8 5/ 8 BUOY 41008 0150 63 61 170/ 8/ 10 1010.4F 3/ 8 3/100/ 8 FOLLY BEACH CMAN 0200 62 200/ 7/ 8 1009.8F CAPERS NEARSHORE 0100 62 230/ 8/ 8 N/A FRIPP NEARSHORE 0100 62 190/ 8/ 10 1010.2F STATION/POSITION TIME TEMP WIND PRES WAVE SWELL AIR SEA DIR/SP/G HT/PER HT/PER/DIR (UTC) (F) (DEG/KT/KT) (MB) (FT/S) (FT/S/D) 5E ST. MARYS GA 0121 65 N/A 2/ 8 FRYING PAN BUOY 0150 70 66 210/ 12/ 14 1011.3R 6/ 8 5/120/ 8 BUOY 41025 NOT AVBL CAPE LOOKOUT NC 0100 64 180/ 15/ 16 1009.8S BUOY 41002 0150 71 69 180/ 19/ 23 1014.9F 8/ 7 BUOY 41010 0120 77 76 180/ 16/ 19 1013.1F ST AUGUSTINE FL 0200 66 64 170/ 6/ 6 1013.1R $$

USA.gov is the U.S. government's official web portal to all federal, state and local government web resources and services.